Location: B?dargowo
(53.3916°N, 14.4413°E)
Time: 00:56:58
(UTC+00:00)

Cosmos 2360 Rocket - Pass Details

Date: 05 February 2023
Orbit: 832 x 846 km, 71.0° (Epoch: 20 March)

Event Time Altitude Azimuth Distance (km) Brightness Sun altitude
Rises 17:33:40 0° 201° (SSW) 3,378 5.7 -15.2°
Reaches altitude 10° 17:36:06 10° 199° (SSW) 2,450 4.9 -15.6°
Maximum altitude 17:41:41 69° 117° (ESE) 901 2.1 -16.4°
Enters shadow 17:46:46 13° 36° (NE) 2,268 4.1 -17.2°
